星链-3679 (STARLINK-3679 )

导读

STARLINK-3679是美国太空探索技术公司Starlink卫星互联网项目的一员,于2022年3月9日发射升空。作为星链星座的组网卫星,它主要为全球范围提供低延迟、高速率的宽带互联网服务,填补偏远地区网络覆盖空白,推动全球互联,同时也增强了美国在低轨卫星通信领域的优势。

基本信息
目录编号:
51973
目录名称:
STARLINK-3679
国际标识:
2022-025T
轨道中心:
EARTH
卫星名称:
星链-3679
卫星全名:
星链-3679 (STARLINK-3679 )
卫星状态:
在轨 (已飞行1640 天)
发射日期:
2022-03-09 UTC
国别 :
美国 (US)
星等 :
--
轨道信息
数据来源 国际轨道数据
星历时间: 2026-09-04T11:26:41+0800
9小时前
查看轨道信息
半长轴: 6848.869km
偏心率: 0.00012
轨道倾角: 53.160°
近地点辐角 80.287°
升交点赤经 286.502°
平近点角 279.827°
近地点: 469.91km
远地点: 471.554km
周期: 94.013分钟
每日圈数: 15.31703
详细信息
固有亮度:
5
最大亮度:
2.5
卫星平台:
Starlink v1.5
覆盖范围:
全球
运营商:
太空探索技术公司
运营商所在国:
美国
制造商(研发单位):
太空探索技术公司
制造商所在国:
美国
使用方式:
暂无
卫星简介
星链(Starlink)计划是由太空探索技术公司(SpaceX)提出的一个巨型低轨卫星互联网星座项目,计划在2019年至2024年间在太空搭建由约1.2万颗卫星组成的“星链”网络,其中1584颗将部署在地球上空550千米处的近地轨道,并从2020年开始工作。该卫星仍在工作。
2D轨道图
3D轨道图
轨道高度分析图
轨道倾角分析图
轨道综合分析图
查看轨道综合分析图
交会数据列表
事件ID 空间交会对象 最接近时刻(TCA) 交会距离 交会风险概率(CRP) 交会风险指数(CRI) 操作
CDM_260905-011905-197306-545522
2026-09-05T
01:19:51+0000
2.646 km
极远距离
1.591204E-6 低风险 0.39
CDM_260905-165505-197306-976021
2026-09-05T
16:55:58+0000
2.957 km
极远距离
1.357137E-6 低风险 0.38
CDM_260906-125205-197306-754821
2026-09-06T
12:52:02+0000
2.968 km
极远距离
1.314001E-6 低风险 0.37
CDM_260905-225605-197306-803721
2026-09-05T
22:56:55+0000
2.992 km
极远距离
1.108436E-6 低风险 0.36
CDM_260904-080005-197306-922221
2026-09-04T
08:00:51+0000
2.575 km
极远距离
1.014721E-6 低风险 0.35